Weather History for Dryden, TX

Change the Weather History Date:

Sunday, August 4, 2013

  Actual Average (KFST) Record (KFST)
Temperature  
Mean Temperature 90 °F -  
Max Temperature 100 °F 93 °F 104 °F (2003)
Min Temperature 79 °F 69 °F 68 °F (1999)
Cooling Degree Days 24    
Growing Degree Days 40 (Base 50)    
Moisture  
Dew Point 62 °F    
Average Humidity 42    
Maximum Humidity 67    
Minimum Humidity 26    
Precipitation  
Precipitation 0.00 in - - ()
Sea Level Pressure  
Sea Level Pressure 29.88 in    
Wind  
Wind Speed 12 mph (ESE)    
Max Wind Speed 20 mph    
Max Gust Speed 26 mph    
Averages and records for this station are not official NWS values.
T = Trace of Precipitation, MM = Missing Value Source: NWS Daily Summary

Daily Weather History Graph

Daily Weather History Graph

Search for Another Location

Airport:

Trip Planner

Search our weather history database for the weather conditions in past years. The results will help you decide how hot, cold, wet, or windy it might be!

Date:

Astronomy

Aug. 04, 2013 Rise Set
Actual Time 7:09 AM CDT 8:39 PM CDT
Civil Twilight 6:44 AM CDT 9:05 PM CDT
Nautical Twilight 6:13 AM CDT 9:36 PM CDT
Astronomical Twilight 5:40 AM CDT 10:08 PM CDT
Moon 5:14 AM CDT (8/4) 7:04 PM CDT (8/4)
Length of Visible Light 14h 21m
Length of Day
13h 29m
Waning Crescent, 4% of the Moon is Illuminated
Aug 4
Waning Crescent
Aug 6
New
Aug 14
First Quarter
Aug 20
Full
Aug 28
Last Quarter

Hourly Weather History & Observations

Time (CDT) Temp. Heat Index Dew Point Humidity Pressure Visibility Wind Dir Wind Speed Gust Speed Precip Events Conditions
12:53 AM 87.1 °F 85.3 °F 55.0 °F 33% 29.88 in - East 8.1 mph - N/A   Unknown
1:53 AM 84.0 °F 82.6 °F 54.0 °F 35% 29.88 in - East 8.1 mph - N/A   Unknown
2:53 AM 84.0 °F 83.5 °F 57.9 °F 41% 29.89 in - East 13.8 mph - N/A   Unknown
3:53 AM 82.9 °F 84.6 °F 64.9 °F 54% 29.88 in - ESE 16.1 mph 26.5 mph N/A   Unknown
4:53 AM 82.0 °F 84.5 °F 66.9 °F 60% 29.88 in - ESE 16.1 mph 24.2 mph N/A   Unknown
5:53 AM 80.1 °F 82.3 °F 66.9 °F 64% 29.89 in - ESE 10.4 mph 19.6 mph N/A   Unknown
6:53 AM 79.0 °F - 66.9 °F 66% 29.90 in - East 9.2 mph - N/A   Unknown
7:53 AM 80.1 °F 82.7 °F 68.0 °F 67% 29.92 in - East 10.4 mph - N/A   Unknown
8:53 AM 82.0 °F 84.5 °F 66.9 °F 60% 29.94 in - ESE 15.0 mph - N/A   Unknown
9:53 AM 84.9 °F 88.2 °F 68.0 °F 57% 29.95 in - ESE 11.5 mph - N/A   Unknown
10:53 AM 88.0 °F 90.7 °F 66.9 °F 49% 29.95 in - SE 6.9 mph 17.3 mph N/A   Unknown
11:53 AM 91.0 °F 94.3 °F 66.9 °F 45% 29.93 in - ESE 12.7 mph - N/A   Unknown
12:53 PM 93.9 °F 96.1 °F 64.9 °F 38% 29.92 in - SE 11.5 mph 21.9 mph N/A   Unknown
1:53 PM 97.0 °F 98.3 °F 63.0 °F 32% 29.89 in - SE 13.8 mph 19.6 mph N/A   Unknown
2:53 PM 99.0 °F 98.6 °F 59.0 °F 26% 29.87 in - ESE 13.8 mph 20.7 mph N/A   Unknown
3:53 PM 99.0 °F 98.6 °F 59.0 °F 26% 29.85 in - SE 13.8 mph 19.6 mph N/A   Unknown
4:53 PM 100.9 °F 101.6 °F 60.1 °F 26% 29.82 in - SE 19.6 mph 25.3 mph N/A   Unknown
5:53 PM 100.0 °F 100.2 °F 59.0 °F 26% 29.82 in - SE 17.3 mph 24.2 mph N/A   Unknown
6:53 PM 98.1 °F 98.1 °F 60.1 °F 28% 29.81 in - SE 13.8 mph 24.2 mph N/A   Unknown
7:53 PM 96.1 °F 96.4 °F 61.0 °F 31% 29.81 in - ESE 16.1 mph 25.3 mph N/A   Unknown
8:53 PM 93.0 °F 93.0 °F 61.0 °F 34% 29.82 in - ESE 13.8 mph 21.9 mph N/A   Unknown
9:53 PM 91.9 °F 91.5 °F 60.1 °F 34% 29.83 in - ESE 15.0 mph 21.9 mph N/A   Unknown
10:53 PM 91.0 °F 90.5 °F 60.1 °F 35% 29.85 in - ESE 13.8 mph 23.0 mph N/A   Unknown
11:53 PM 89.1 °F 88.8 °F 60.1 °F 38% 29.86 in - East 9.2 mph - N/A   Unknown